CW0121 Weather Reports


Display with metric or nautical units.
time (UTC)temp
F
wind
direction
speed
MPH
gust
MPH
rain 1hr
in
rain 24hr
in
rain mn
in
humidity
%
barometer
mb
20260507234542 63 279 4.0 10.0 0.00 0.00 0.00 19 1007.8
20260507234506 63 250 5.0 10.0 0.00 0.00 0.00 19 1008.8
20260507234002 64 240 7.0 10.0 0.00 0.00 0.00 18 1008.8
20260507233503 64 293 5.0 11.0 0.00 0.00 0.00 19 1008.9
20260507233041 64 286 4.0 14.0 0.00 0.00 0.00 21 1008.0
20260507233010 64 158 4.0 14.0 0.00 0.00 0.00 20 1008.9
20260507232504 64 295 5.0 14.0 0.00 0.00 0.00 19 1008.9
20260507232007 64 230 4.0 7.0 0.00 0.00 0.00 18 1008.9
20260507231539 64 307 2.0 7.0 0.00 0.00 0.00 19 1008.0
20260507231516 64 315 2.0 7.0 0.00 0.00 0.00 19 1009.0
20260507231009 64 286 2.0 9.0 0.00 0.00 0.00 21 1009.0
20260507230510 64 302 4.0 9.0 0.00 0.00 0.00 19 1009.0
20260507230039 64 268 3.0 9.0 0.00 0.00 0.00 22 1008.1
20260507230020 64 271 4.0 12.0 0.00 0.00 0.00 20 1008.9
20260507225512 64 223 2.0 12.0 0.00 0.00 0.00 22 1008.9
20260507225006 64 309 4.0 14.0 0.00 0.00 0.00 21 1009.0
20260507224537 63 312 6.0 14.0 0.00 0.00 0.00 20 1008.1
20260507224525 63 334 7.0 14.0 0.00 0.00 0.00 19 1009.0
20260507224003 63 309 3.0 8.0 0.00 0.00 0.00 20 1008.9
20260507223505 64 302 5.0 9.0 0.00 0.00 0.00 19 1008.9
20260507223035 64 318 3.0 12.0 0.00 0.00 0.00 22 1008.2
20260507223009 64 246 4.0 12.0 0.00 0.00 0.00 20 1009.0
20260507222506 64 295 7.0 12.0 0.00 0.00 0.00 22 1009.1
20260507222007 64 262 4.0 11.0 0.00 0.00 0.00 23 1009.1
20260507221532 63 295 3.0 11.0 0.00 0.00 0.00 21 1008.3
20260507221512 63 260 4.0 11.0 0.00 0.00 0.00 22 1009.1
20260507221009 63 262 1.0 12.0 0.00 0.00 0.00 24 1009.1
20260507220508 63 269 6.0 12.0 0.00 0.00 0.00 23 1009.2
20260507220029 63 271 6.0 13.0 0.00 0.00 0.00 22 1008.5
20260507220016 63 256 7.0 13.0 0.00 0.00 0.00 21 1009.3
20260507215512 63 317 8.0 13.0 0.00 0.00 0.00 22 1009.3
20260507215012 63 315 5.0 12.0 0.00 0.00 0.00 21 1009.4
20260507214528 62 244 7.0 12.0 0.00 0.00 0.00 21 1008.5
20260507214523 62 236 7.0 12.0 0.00 0.00 0.00 22 1009.3
20260507214012 63 274 4.0 10.0 0.00 0.00 0.00 21 1009.4
20260507213513 62 321 3.0 10.0 0.00 0.00 0.00 23 1009.5
20260507213034 61 205 4.0 16.0 0.00 0.00 0.00 23 1008.6
20260507213024 61 203 5.0 16.0 0.00 0.00 0.00 22 1009.5
20260507212504 62 243 9.0 16.0 0.00 0.00 0.00 21 1009.6
20260507212003 62 235 8.0 13.0 0.00 0.00 0.00 21 1009.6
20260507211532 62 226 4.0 9.0 0.00 0.00 0.00 23 1008.9
20260507211509 62 264 4.0 9.0 0.00 0.00 0.00 24 1009.7
20260507211006 62 255 3.0 13.0 0.00 0.00 0.00 24 1009.7
20260507210507 62 275 4.0 16.0 0.00 0.00 0.00 22 1009.7
20260507210022 62 263 6.0 16.0 0.00 0.00 0.00 25 1009.0
20260507210014 62 290 7.0 16.0 0.00 0.00 0.00 22 1009.7
20260507205507 62 247 8.0 12.0 0.00 0.00 0.00 24 1009.7
20260507205005 61 220 1.0 13.0 0.00 0.00 0.00 23 1009.8
20260507204521 61 311 3.0 13.0 0.00 0.00 0.00 24 1010.0
20260507204519 61 314 3.0 13.0 0.00 0.00 0.00 25 1009.2
20260507204010 62 264 5.0 11.0 0.00 0.00 0.00 23 1009.9
20260507203508 61 293 3.0 11.0 0.00 0.00 0.00 24 1010.0
20260507203024 61 305 2.0 19.0 0.00 0.00 0.00 24 1010.0
20260507203016 61 312 2.0 19.0 0.00 0.00 0.00 24 1009.4
20260507202507 61 244 5.0 19.0 0.00 0.00 0.00 24 1010.3
20260507202011 61 258 8.0 16.0 0.00 0.00 0.00 26 1010.2
20260507201531 60 268 5.0 16.0 0.00 0.00 0.00 26 1010.2
20260507201525 60 246 5.0 12.0 0.00 0.00 0.00 26 1009.7
20260507201003 60 245 7.0 16.0 0.00 0.00 0.00 25 1010.3
20260507200503 60 217 10.0 16.0 0.00 0.00 0.00 25 1010.3
20260507200015 59 228 4.0 14.0 0.00 0.00 0.00 27 1010.0
20260507200013 59 204 5.0 14.0 0.00 0.00 0.00 26 1010.5
20260507195504 60 210 10.0 14.0 0.00 0.00 0.00 25 1010.6
20260507195005 61 255 7.0 14.0 0.00 0.00 0.00 24 1010.5
20260507194516 60 224 3.0 9.0 0.00 0.00 0.00 26 1010.5
20260507194510 60 187 2.0 9.0 0.00 0.00 0.00 26 1010.1
20260507194007 59 311 2.0 17.0 0.00 0.00 0.00 29 1010.4
20260507193505 59 300 4.0 17.0 0.00 0.00 0.00 25 1010.6
20260507193023 59 354 4.0 7.0 0.00 0.00 0.00 29 1010.7
20260507193009 59 25 4.0 9.0 0.00 0.00 0.00 29 1010.1
20260507192509 59 90 3.0 17.0 0.00 0.00 0.00 27 1010.8
20260507192014 58 327 7.0 17.0 0.00 0.00 0.00 27 1010.8
20260507191523 59 82 1.0 11.0 0.00 0.00 0.00 27 1010.8
20260507191508 59 80 1.0 10.0 0.00 0.00 0.00 27 1010.1
20260507191007 58 281 5.0 11.0 0.00 0.00 0.00 29 1010.8
20260507190511 58 311 6.0 11.0 0.00 0.00 0.00 25 1010.9
20260507190031 59 317 3.0 11.0 0.00 0.00 0.00 29 1010.9
20260507190006 59 331 3.0 11.0 0.00 0.00 0.00 30 1010.3
20260507185503 58 306 6.0 11.0 0.00 0.00 0.00 26 1010.9
20260507185004 58 288 4.0 10.0 0.00 0.00 0.00 31 1010.9
20260507184516 58 276 5.0 7.0 0.00 0.00 0.00 26 1010.9
20260507184505 58 293 4.0 7.0 0.00 0.00 0.00 26 1010.4
20260507184005 58 304 5.0 9.0 0.00 0.00 0.00 25 1010.9
20260507183505 59 291 4.0 9.0 0.00 0.00 0.00 27 1011.0
20260507183022 58 297 3.0 9.0 0.00 0.00 0.00 27 1011.0
20260507183003 58 285 2.0 9.0 0.00 0.00 0.00 28 1010.5
20260507182508 58 271 4.0 10.0 0.00 0.00 0.00 28 1011.0
20260507182007 57 292 4.0 10.0 0.00 0.00 0.00 26 1011.1
20260507181524 58 300 4.0 11.0 0.00 0.00 0.00 24 1011.1
20260507181502 58 300 3.0 11.0 0.00 0.00 0.00 26 1010.6
20260507181016 58 299 6.0 11.0 0.00 0.00 0.00 26 1011.1
20260507180511 57 304 2.0 10.0 0.00 0.00 0.00 26 1011.2
20260507180100 57 258 4.0 10.0 0.00 0.00 0.00 28 1010.9
20260507180027 57 301 6.0 10.0 0.00 0.00 0.00 28 1011.3
20260507175511 57 144 2.0 8.0 0.00 0.00 0.00 29 1011.3
20260507175009 56 296 2.0 11.0 0.00 0.00 0.00 28 1011.3
20260507174601 56 298 4.0 12.0 0.00 0.00 0.00 26 1011.1
20260507174530 56 302 3.0 14.0 0.00 0.00 0.00 30 1011.4
20260507174005 56 295 8.0 14.0 0.00 0.00 0.00 28 1011.3
20260507173506 56 293 7.0 12.0 0.00 0.00 0.00 28 1011.4
20260507173102 55 252 2.0 6.0 0.00 0.00 0.00 30 1011.1
20260507173017 55 315 2.0 11.0 0.00 0.00 0.00 28 1011.6
20260507172507 55 20 2.0 11.0 0.00 0.00 0.00 29 1011.6
20260507172009 56 337 6.0 12.0 0.00 0.00 0.00 28 1011.7
20260507171555 56 319 4.0 12.0 0.00 0.00 0.00 29 1011.3
20260507171522 56 327 5.0 12.0 0.00 0.00 0.00 29 1011.8
20260507171008 56 301 5.0 10.0 0.00 0.00 0.00 28 1011.8
20260507170510 55 13 3.0 6.0 0.00 0.00 0.00 31 1011.9
20260507170055 55 70 3.0 6.0 0.00 0.00 0.00 29 1011.6
20260507170026 55 27 4.0 6.0 0.00 0.00 0.00 29 1012.1
20260507165507 56 14 2.0 7.0 0.00 0.00 0.00 28 1012.2
20260507165014 56 258 4.0 9.0 0.00 0.00 0.00 27 1012.2
20260507164551 55 304 2.0 9.0 0.00 0.00 0.00 30 1011.8
20260507164527 55 203 4.0 9.0 0.00 0.00 0.00 30 1012.2
20260507164013 56 240 5.0 8.0 0.00 0.00 0.00 32 1012.3
20260507163509 56 88 1.0 7.0 0.00 0.00 0.00 34 1012.3
20260507163048 55 231 2.0 8.0 0.00 0.00 0.00 35 1011.8
20260507163028 55 276 3.0 8.0 0.00 0.00 0.00 36 1012.3
20260507162506 54 161 5.0 9.0 0.00 0.00 0.00 35 1012.3
20260507162007 54 255 4.0 9.0 0.00 0.00 0.00 36 1012.3
20260507161551 54 308 2.0 5.0 0.00 0.00 0.00 35 1012.0
20260507161520 54 301 2.0 5.0 0.00 0.00 0.00 35 1012.3
20260507161006 54 357 2.0 5.0 0.00 0.00 0.00 37 1012.3
20260507160506 54 312 2.0 5.0 0.00 0.00 0.00 39 1012.3
20260507160043 53 277 2.0 5.0 0.00 0.00 0.00 38 1012.0
20260507160022 53 243 2.0 5.0 0.00 0.00 0.00 37 1012.3
20260507155509 53 307 3.0 5.0 0.00 0.00 0.00 38 1012.3
20260507155008 53 304 1.0 5.0 0.00 0.00 0.00 42 1012.3
20260507154542 53 295 2.0 5.0 0.00 0.00 0.00 40 1012.1
20260507154524 53 300 2.0 5.0 0.00 0.00 0.00 40 1012.3
20260507154010 53 322 2.0 6.0 0.00 0.00 0.00 42 1012.4
20260507153511 52 233 2.0 6.0 0.00 0.00 0.00 42 1012.4
20260507153037 52 250 1.0 7.0 0.00 0.00 0.00 41 1012.2
20260507153032 52 234 1.0 7.0 0.00 0.00 0.00 43 1012.4
20260507152510 51 201 2.0 7.0 0.00 0.00 0.00 44 1012.3
20260507152011 51 274 3.0 6.0 0.00 0.00 0.00 44 1012.3
20260507151535 50 269 2.0 5.0 0.00 0.00 0.00 44 1012.1
20260507151527 50 260 2.0 6.0 0.00 0.00 0.00 43 1012.3
20260507151006 50 242 2.0 6.0 0.00 0.00 0.00 45 1012.3
20260507150508 50 270 2.0 5.0 0.00 0.00 0.00 49 1012.2
20260507150033 50 247 1.0 5.0 0.00 0.00 0.00 47 1012.1
20260507150020 50 229 1.0 5.0 0.00 0.00 0.00 48 1012.2
20260507145506 49 40 0.0 3.0 0.00 0.00 0.00 48 1012.2
20260507145007 49 95 0.0 3.0 0.00 0.00 0.00 48 1012.2
20260507144529 49 65 1.0 3.0 0.00 0.00 0.00 49 1012.1
20260507144525 49 52 2.0 3.0 0.00 0.00 0.00 49 1012.1
20260507144012 48 77 0.0 3.0 0.00 0.00 0.00 53 1012.2
20260507143510 47 264 0.0 3.0 0.00 0.00 0.00 53 1012.3
20260507143032 46 9 2.0 3.0 0.00 0.00 0.00 53 1012.2
20260507143025 46 303 1.0 3.0 0.00 0.00 0.00 54 1012.1
20260507142508 46 281 0.0 3.0 0.00 0.00 0.00 54 1012.1
20260507142009 45 297 0.0 4.0 0.00 0.00 0.00 56 1012.1
20260507141530 44 342 2.0 4.0 0.00 0.00 0.00 56 1012.1
20260507141522 44 20 1.0 4.0 0.00 0.00 0.00 56 1012.1
20260507141009 43 90 1.0 4.0 0.00 0.00 0.00 58 1012.1
20260507140509 43 2 3.0 4.0 0.00 0.00 0.00 57 1012.0
20260507140031 42 13 2.0 5.0 0.00 0.00 0.00 59 1012.0
20260507140016 42 348 2.0 5.0 0.00 0.00 0.00 60 1012.1
20260507135509 42 31 2.0 5.0 0.00 0.00 0.00 61 1012.0
20260507135006 41 7 3.0 6.0 0.00 0.00 0.00 61 1012.0
20260507134525 41 16 4.0 6.0 0.00 0.00 0.00 62 1011.9
20260507134513 41 45 3.0 6.0 0.00 0.00 0.00 63 1012.0
20260507134005 40 24 2.0 6.0 0.00 0.00 0.00 65 1011.9
20260507133510 40 44 3.0 6.0 0.00 0.00 0.00 65 1012.0
20260507133026 39 36 3.0 6.0 0.00 0.00 0.00 66 1012.0
20260507133009 39 40 3.0 6.0 0.00 0.00 0.00 67 1012.0
20260507132507 39 40 3.0 6.0 0.00 0.00 0.00 67 1011.9
20260507132007 38 334 2.0 5.0 0.00 0.00 0.00 68 1011.9
20260507131536 38 351 3.0 7.0 0.00 0.00 0.00 69 1012.0
20260507131507 38 344 3.0 7.0 0.00 0.00 0.00 69 1012.0
20260507131011 37 312 2.0 7.0 0.00 0.00 0.00 71 1011.9
20260507130513 37 319 3.0 6.0 0.00 0.00 0.00 71 1011.9
20260507130012 36 315 2.0 4.0 0.00 0.00 0.00 72 1011.9
20260507130005 36 323 1.0 4.0 0.00 0.00 0.00 73 1011.9
20260507125503 35 328 1.0 3.0 0.00 0.00 0.00 75 1011.9
20260507125006 34 11 1.0 3.0 0.00 0.00 0.00 76 1011.8
20260507124519 33 2 1.0 3.0 0.00 0.00 0.00 78 1011.8
20260507124505 33 8 1.0 3.0 0.00 0.00 0.00 78 1011.8
20260507124009 32 359 1.0 3.0 0.00 0.00 0.00 79 1011.9
20260507123509 31 328 2.0 3.0 0.00 0.00 0.00 79 1011.9
20260507123026 30 309 1.0 2.0 0.00 0.00 0.00 80 1011.9
20260507123007 30 323 1.0 2.0 0.00 0.00 0.00 80 1011.8
20260507122507 29 322 1.0 2.0 0.00 0.00 0.00 80 1011.9
20260507122004 29 309 1.0 2.0 0.00 0.00 0.00 80 1011.8
20260507121504 28 307 1.0 2.0 0.00 0.00 0.00 80 1011.8
20260507121004 28 321 1.0 1.0 0.00 0.00 0.00 80 1011.7
20260507120503 27 343 1.0 1.0 0.00 0.00 0.00 80 1011.4
20260507120010 27 345 0.0 2.0 0.00 0.00 0.00 80 1011.4
20260507120002 27 345 0.0 1.0 0.00 0.00 0.00 81 1011.4
20260507115506 26 346 0.0 2.0 0.00 0.00 0.00 81 1011.3
20260507115006 26 319 1.0 2.0 0.00 0.00 0.00 82 1011.3
20260507114515 25 321 1.0 3.0 0.00 0.00 0.00 82 1011.3
20260507114501 25 321 0.0 3.0 0.00 0.00 0.00 83 1011.3
20260507114006 25 321 1.0 3.0 0.00 0.00 0.00 83 1011.4
20260507113506 25 319 0.0 3.0 0.00 0.00 0.00 83 1011.3
20260507113021 24 317 1.0 3.0 0.00 0.00 0.00 82 1011.5
20260507113001 24 317 1.0 3.0 0.00 0.00 0.00 82 1011.4
20260507112507 25 328 1.0 3.0 0.00 0.00 0.00 83 1011.4
20260507112007 25 310 1.0 3.0 0.00 0.00 0.00 81 1011.5
20260507111558 25 309 2.0 3.0 0.00 0.00 0.00 82 1011.5
20260507111525 25 308 2.0 3.0 0.00 0.00 0.00 81 1011.6
20260507111009 26 319 2.0 3.0 0.00 0.00 0.00 81 1011.7
20260507110510 26 325 1.0 2.0 0.00 0.00 0.00 81 1011.6
20260507110100 27 342 0.0 1.0 0.00 0.00 0.00 81 1011.4
20260507110011 27 342 1.0 1.0 0.00 0.00 0.00 81 1011.5
20260507105503 27 311 0.0 2.0 0.00 0.00 0.00 81 1011.5
20260507105004 26 311 0.0 2.0 0.00 0.00 0.00 80 1011.4
20260507104600 27 307 1.0 2.0 0.00 0.00 0.00 79 1011.3
20260507104524 27 307 2.0 2.0 0.00 0.00 0.00 78 1011.5
20260507104007 28 289 1.0 2.0 0.00 0.00 0.00 78 1011.5
20260507103503 28 136 0.0 1.0 0.00 0.00 0.00 78 1011.5
20260507103117 29 136 0.0 1.0 0.00 0.00 0.00 78 1011.4
20260507103023 29 136 0.0 1.0 0.00 0.00 0.00 77 1011.5
20260507102506 30 136 1.0 1.0 0.00 0.00 0.00 74 1011.6
20260507102007 31 136 1.0 1.0 0.00 0.00 0.00 72 1011.6
20260507101548 32 136 0.0 0.0 0.00 0.00 0.00 75 1011.4
20260507101535 32 136 0.0 0.0 0.00 0.00 0.00 75 1011.5
20260507101006 31 136 0.0 0.0 0.00 0.00 0.00 76 1011.5
20260507100508 30 136 0.0 0.0 0.00 0.00 0.00 77 1011.5
20260507100059 30 136 0.0 0.0 0.00 0.00 0.00 76 1011.4
20260507100031 30 136 0.0 0.0 0.00 0.00 0.00 75 1011.6
20260507095510 31 136 0.0 0.0 0.00 0.00 0.00 74 1011.6
20260507095014 31 136 0.0 0.0 0.00 0.00 0.00 72 1011.6
20260507094542 32 136 0.0 0.0 0.00 0.00 0.00 72 1011.4
20260507094525 32 136 0.0 0.0 0.00 0.00 0.00 71 1011.6
20260507094005 33 136 0.0 0.0 0.00 0.00 0.00 70 1011.7
20260507093504 33 136 0.0 1.0 0.00 0.00 0.00 70 1011.7
20260507093038 33 136 0.0 1.0 0.00 0.00 0.00 70 1011.5
20260507093010 33 136 0.0 1.0 0.00 0.00 0.00 70 1011.7
20260507092509 33 136 0.0 1.0 0.00 0.00 0.00 70 1011.7
20260507092005 34 136 0.0 0.0 0.00 0.00 0.00 69 1011.8
20260507091544 34 136 0.0 0.0 0.00 0.00 0.00 69 1011.8
20260507091539 34 136 0.0 0.0 0.00 0.00 0.00 69 1011.5
20260507091007 34 136 0.0 0.0 0.00 0.00 0.00 68 1011.7
20260507090507 34 136 0.0 0.0 0.00 0.00 0.00 68 1011.8
20260507090035 35 136 0.0 1.0 0.00 0.00 0.00 68 1011.7
20260507090022 35 136 0.0 1.0 0.00 0.00 0.00 68 1011.8
20260507085506 35 136 0.0 1.0 0.00 0.00 0.00 68 1011.8
20260507085006 35 146 0.0 0.0 0.00 0.00 0.00 68 1011.7
20260507084542 35 146 0.0 2.0 0.00 0.00 0.00 68 1011.7
20260507084527 35 146 0.0 2.0 0.00 0.00 0.00 68 1011.7
20260507084014 35 148 0.0 3.0 0.00 0.00 0.00 67 1011.8
20260507083510 35 160 1.0 3.0 0.00 0.00 0.00 67 1011.8
20260507083032 35 142 1.0 2.0 0.00 0.00 0.00 68 1011.7
20260507083026 35 146 1.0 4.0 0.00 0.00 0.00 67 1011.8
20260507082502 35 125 0.0 5.0 0.00 0.00 0.00 68 1011.8
20260507082005 35 150 3.0 6.0 0.00 0.00 0.00 68 1011.8
20260507081530 35 127 3.0 6.0 0.00 0.00 0.00 68 1011.5
20260507081514 35 148 4.0 6.0 0.00 0.00 0.00 67 1011.7
20260507081006 35 160 4.0 6.0 0.00 0.00 0.00 68 1011.7
20260507080510 35 135 4.0 6.0 0.00 0.00 0.00 67 1011.7
20260507080027 35 148 4.0 6.0 0.00 0.00 0.00 67 1011.6
20260507080017 35 162 4.0 6.0 0.00 0.00 0.00 67 1011.7
20260507075506 36 169 2.0 5.0 0.00 0.00 0.00 66 1011.8
20260507075009 36 155 2.0 5.0 0.00 0.00 0.00 65 1011.9
20260507074523 37 203 1.0 6.0 0.00 0.00 0.00 65 1011.8
20260507074521 37 195 2.0 6.0 0.00 0.00 0.00 64 1011.8
20260507074006 37 178 4.0 7.0 0.00 0.00 0.00 63 1011.8
20260507073507 38 174 3.0 7.0 0.00 0.00 0.00 63 1011.8
20260507073026 38 155 5.0 8.0 0.00 0.00 0.00 63 1011.8
20260507073022 38 162 5.0 8.0 0.00 0.00 0.00 63 1011.8
20260507072513 38 176 4.0 8.0 0.00 0.00 0.00 62 1011.8
20260507072011 38 117 4.0 8.0 0.00 0.00 0.00 62 1011.9
20260507071525 38 142 6.0 9.0 0.00 0.00 0.00 61 1011.9
20260507071002 38 168 6.0 9.0 0.00 0.00 0.00 61 1011.9
20260507070509 38 160 5.0 9.0 0.00 0.00 0.00 61 1011.9
20260507070020 38 169 3.0 9.0 0.00 0.00 0.00 62 1012.0
20260507070016 38 162 4.0 9.0 0.00 0.00 0.00 61 1012.0
20260507065505 38 170 7.0 9.0 0.00 0.00 0.00 62 1012.0
20260507065009 38 165 6.0 10.0 0.00 0.00 0.00 62 1012.1
20260507064520 38 179 6.0 11.0 0.00 0.00 0.00 62 1012.1
20260507064518 38 163 5.0 11.0 0.00 0.00 0.00 62 1012.0
20260507064005 38 134 7.0 12.0 0.00 0.00 0.00 62 1012.1
20260507063507 38 143 8.0 12.0 0.00 0.00 0.00 62 1012.1
20260507063026 38 150 7.0 11.0 0.00 0.00 0.00 63 1012.3
20260507063016 38 169 7.0 11.0 0.00 0.00 0.00 63 1012.2
20260507062510 38 146 6.0 12.0 0.00 0.00 0.00 63 1012.3
20260507062006 38 141 7.0 12.0 0.00 0.00 0.00 64 1012.3
20260507061531 38 175 8.0 13.0 0.00 0.00 0.00 64 1012.4
20260507061514 39 148 8.0 12.0 0.00 0.00 0.00 64 1012.3
20260507061009 39 139 6.0 13.0 0.00 0.00 0.00 65 1012.4
20260507060509 39 151 6.0 12.0 0.00 0.00 0.00 63 1012.5
20260507060031 39 139 8.0 13.0 0.00 0.00 0.00 62 1012.5
20260507060017 39 159 8.0 13.0 0.00 0.00 0.00 63 1012.4
20260507055508 39 135 8.0 13.0 0.00 0.00 0.00 62 1012.6
20260507055007 39 146 8.0 10.0 0.00 0.00 0.00 61 1012.7
20260507054520 39 165 4.0 9.0 0.00 0.00 0.00 62 1012.7
20260507054507 39 134 4.0 9.0 0.00 0.00 0.00 62 1012.6
20260507054007 39 148 6.0 10.0 0.00 0.00 0.00 62 1012.7
20260507053506 39 131 3.0 10.0 0.00 0.00 0.00 63 1012.8
20260507053019 39 117 5.0 9.0 0.00 0.00 0.00 64 1012.9
20260507053004 39 112 4.0 9.0 0.00 0.00 0.00 64 1012.7
20260507052507 38 147 6.0 9.0 0.00 0.00 0.00 64 1012.8
20260507052007 38 130 5.0 9.0 0.00 0.00 0.00 65 1012.9
20260507051602 38 127 5.0 9.0 0.00 0.00 0.00 66 1012.8
20260507051526 38 84 6.0 9.0 0.00 0.00 0.00 65 1012.9
20260507051010 38 116 3.0 7.0 0.00 0.00 0.00 65 1013.0
20260507050511 37 74 4.0 6.0 0.00 0.00 0.00 64 1013.0
20260507050059 37 75 3.0 6.0 0.00 0.00 0.00 64 1013.0
20260507050032 37 162 4.0 7.0 0.00 0.00 0.00 64 1013.1
20260507045510 37 111 3.0 7.0 0.00 0.00 0.00 63 1013.1
20260507045008 38 99 4.0 8.0 0.00 0.00 0.00 63 1013.3
20260507044558 38 129 2.0 9.0 0.00 0.00 0.00 62 1013.2
20260507044541 38 115 3.0 9.0 0.00 0.00 0.00 62 1013.3
20260507044017 38 109 5.0 11.0 0.00 0.00 0.00 61 1013.4
20260507043507 38 94 5.0 11.0 0.00 0.00 0.00 60 1013.5
20260507043054 38 84 4.0 9.0 0.00 0.00 0.00 60 1013.4
20260507043018 38 102 5.0 7.0 0.00 0.00 0.00 59 1013.5
20260507042511 38 120 4.0 10.0 0.00 0.00 0.00 58 1013.6
20260507042007 38 125 3.0 10.0 0.00 0.00 0.00 58 1013.6
20260507041601 38 76 2.0 6.0 0.00 0.00 0.00 58 1013.5
20260507041523 38 79 3.0 6.0 0.00 0.00 0.00 58 1013.6
20260507041008 38 108 4.0 6.0 0.00 0.00 0.00 57 1013.7
20260507040511 38 102 3.0 5.0 0.00 0.00 0.00 57 1013.8
20260507040052 39 97 2.0 6.0 0.00 0.00 0.00 58 1013.7
20260507040025 39 86 2.0 7.0 0.00 0.00 0.00 57 1013.9
20260507035507 39 54 3.0 7.0 0.00 0.00 0.00 56 1013.8
20260507035011 39 75 3.0 7.0 0.00 0.00 0.00 56 1013.8
20260507034550 39 75 3.0 6.0 0.00 0.00 0.00 56 1013.7
20260507034527 39 65 3.0 6.0 0.00 0.00 0.00 56 1013.8
20260507034004 39 106 3.0 9.0 0.00 0.00 0.00 55 1013.8
20260507033503 39 101 3.0 9.0 0.00 0.00 0.00 55 1013.9
20260507033051 39 62 3.0 7.0 0.00 0.00 0.00 55 1013.7
20260507033015 39 109 3.0 7.0 0.00 0.00 0.00 55 1013.8
20260507032507 39 79 3.0 6.0 0.00 0.00 0.00 54 1013.9
20260507032006 39 86 3.0 6.0 0.00 0.00 0.00 54 1014.0
20260507031549 40 72 3.0 6.0 0.00 0.00 0.00 54 1013.8
20260507031520 40 72 3.0 7.0 0.00 0.00 0.00 54 1013.9
20260507031011 40 65 4.0 9.0 0.00 0.00 0.00 53 1014.1
20260507030508 40 89 5.0 9.0 0.00 0.00 0.00 52 1014.1
20260507030048 41 60 4.0 8.0 0.00 0.00 0.00 52 1013.8
20260507030022 41 74 4.0 8.0 0.00 0.00 0.00 51 1014.0
20260507025507 41 47 4.0 8.0 0.00 0.00 0.00 51 1013.9
20260507025007 42 60 4.0 8.0 0.00 0.00 0.00 50 1013.9
20260507024552 43 60 5.0 8.0 0.00 0.00 0.00 49 1013.7
20260507024529 43 63 5.0 7.0 0.00 0.00 0.00 49 1013.9
20260507024008 43 49 5.0 8.0 0.00 0.00 0.00 48 1013.9
20260507023511 43 64 4.0 9.0 0.00 0.00 0.00 47 1013.9
20260507023048 43 53 5.0 10.0 0.00 0.00 0.00 47 1013.8
20260507023011 43 46 5.0 10.0 0.00 0.00 0.00 47 1013.9
20260507022503 44 41 5.0 10.0 0.00 0.00 0.00 47 1013.9
20260507022006 44 76 6.0 9.0 0.00 0.00 0.00 47 1013.9
20260507021600 44 52 5.0 8.0 0.00 0.00 0.00 47 1013.7
20260507021518 44 53 5.0 8.0 0.00 0.00 0.00 47 1014.1
20260507021010 44 56 5.0 8.0 0.00 0.00 0.00 47 1014.1
20260507020506 44 61 5.0 7.0 0.00 0.00 0.00 47 1014.1
20260507020106 45 70 3.0 7.0 0.00 0.00 0.00 47 1013.8
20260507020023 45 91 4.0 7.0 0.00 0.00 0.00 47 1014.2
20260507015506 45 56 4.0 6.0 0.00 0.00 0.00 46 1014.0
20260507015010 45 53 2.0 4.0 0.00 0.00 0.00 45 1013.9
20260507014611 46 56 2.0 4.0 0.00 0.00 0.00 43 1013.6
20260507014527 46 75 2.0 4.0 0.00 0.00 0.00 42 1014.0
20260507014009 46 63 3.0 5.0 0.00 0.00 0.00 41 1014.0
20260507013507 46 55 3.0 6.0 0.00 0.00 0.00 41 1014.1
20260507013049 46 51 3.0 6.0 0.00 0.00 0.00 41 1013.6
20260507013026 46 51 3.0 6.0 0.00 0.00 0.00 41 1014.0
20260507012514 46 56 4.0 6.0 0.00 0.00 0.00 40 1014.0
20260507012010 46 54 4.0 6.0 0.00 0.00 0.00 40 1014.0
20260507011555 46 90 3.0 5.0 0.00 0.00 0.00 41 1013.6
20260507011513 46 53 3.0 5.0 0.00 0.00 0.00 40 1014.1
20260507011005 47 46 3.0 6.0 0.00 0.00 0.00 40 1014.1
20260507010506 47 58 3.0 6.0 0.00 0.00 0.00 40 1014.1
20260507010046 47 31 3.0 5.0 0.00 0.00 0.00 39 1013.7
20260507010016 47 60 3.0 6.0 0.00 0.00 0.00 39 1014.1
20260507005508 47 34 3.0 6.0 0.00 0.00 0.00 39 1014.1
20260507005009 48 31 3.0 6.0 0.00 0.00 0.00 38 1014.2
20260507004541 48 27 2.0 6.0 0.00 0.00 0.00 38 1013.9
20260507004522 48 352 3.0 6.0 0.00 0.00 0.00 38 1014.2
20260507004007 48 20 4.0 6.0 0.00 0.00 0.00 38 1014.2
20260507003508 48 45 2.0 5.0 0.00 0.00 0.00 38 1014.2
20260507003040 48 6 3.0 5.0 0.00 0.00 0.00 37 1013.9
20260507003026 48 25 3.0 8.0 0.00 0.00 0.00 37 1014.2
20260507002510 48 61 4.0 9.0 0.00 0.00 0.00 37 1014.3
20260507002012 49 13 4.0 11.0 0.00 0.00 0.00 37 1014.3
20260507001555 49 40 6.0 11.0 0.00 0.00 0.00 37 1014.0
20260507001525 49 15 6.0 11.0 0.00 0.00 0.00 37 1014.4
20260507001012 50 32 3.0 7.0 0.00 0.00 0.00 36 1014.4
20260507000513 50 314 4.0 7.0 0.00 0.00 0.00 36 1014.4
20260507000043 50 16 2.0 6.0 0.00 0.00 0.00 36 1014.1
20260507000014 50 9 3.0 7.0 0.00 0.00 0.00 35 1014.4
20260506235507 49 309 4.0 9.0 0.00 0.00 0.00 36 1014.5
20260506235008 50 299 6.0 9.0 0.00 0.00 0.00 35 1014.5